Back to catalog

COSMOS 2251 DEB

AliveLEO
NORAD 35724·DEBRIS·🇷🇺 Russia

Launched Jun 16, 1993 from Plesetsk Cosmodrome

Loading…

Next Passes (next 24 hours)

TLE

FreshSource: Space-Track

Epoch: Sep 14, 2026, 01:57 UTC

1 35724U 93036AQV 26257.08169581  .00000508  00000-0  11263-3 0  9991
2 35724  74.0318 138.3808 0061020 222.9774 136.6617 14.58737431915434

Track COSMOS 2251 DEB in real time with AllMySat

Download on the App Store